Weather History for KMZG - February, 2015

Change the Weather History Date:

Friday, February 20, 2015

  Actual Average Record
Temperature  
Mean Temperature 68 °F -  
Max Temperature 69 °F - - ()
Min Temperature 68 °F - - ()
Cooling Degree Days 4    
Growing Degree Days 18 (Base 50)    
Moisture  
Dew Point 61 °F    
Average Humidity 76    
Maximum Humidity 83    
Minimum Humidity 68    
Precipitation  
Precipitation 0.00 in - - ()
Sea Level Pressure  
Sea Level Pressure 29.99 in    
Wind  
Wind Speed 17 mph (SSE)    
Max Wind Speed 22 mph    
Max Gust Speed 30 mph    
Visibility 7 miles    
Events      
T = Trace of Precipitation, MM = Missing Value Source: NWS Daily Summary

Daily Weather History Graph

Daily Weather History Graph

Search for Another Location

Airport or City:

Trip Planner

Search our weather history database for the weather conditions in past years. The results will help you decide how hot, cold, wet, or windy it might be!

Date:

Astronomy

Feb. 20, 2015 Rise Set
Actual Time 6:57 AM CST 6:19 PM CST
Civil Twilight 6:34 AM CST 6:43 PM CST
Nautical Twilight 6:06 AM CST 7:10 PM CST
Astronomical Twilight 5:39 AM CST 7:37 PM CST
Moon 8:03 AM CST (2/20) 8:30 PM CST (2/20)
Length of Visible Light 12h 08m
Length of Day
11h 21m
Waxing Crescent, 5% of the Moon is Illuminated
Feb 20
Waxing Crescent
Feb 25
First Quarter
Mar 5
Full
Mar 13
Last Quarter
Mar 20
New

Hourly Weather History & Observations

Time (CST) Temp. Dew Point Humidity Pressure Visibility Wind Dir Wind Speed Gust Speed Precip Events Conditions
12:15 AM 68.0 °F 57.2 °F 68% 30.12 in 10.0 mi SSE 18.4 mph - N/A   Overcast
12:35 AM 68.0 °F 57.2 °F 68% 30.12 in 10.0 mi SSE 16.1 mph 26.5 mph N/A   Mostly Cloudy
12:55 AM 68.0 °F 57.2 °F 68% 30.10 in 10.0 mi SSE 13.8 mph 26.5 mph N/A   Overcast
1:15 AM 68.0 °F 57.2 °F 68% 30.10 in 10.0 mi SSE 19.6 mph 27.6 mph N/A   Mostly Cloudy
1:35 AM 68.0 °F 57.2 °F 68% 30.09 in 10.0 mi SSE 13.8 mph 25.3 mph N/A   Mostly Cloudy
1:55 AM 68.0 °F 57.2 °F 68% 30.08 in 10.0 mi SSE 16.1 mph 25.3 mph N/A   Scattered Clouds
2:15 AM 68.0 °F 57.2 °F 68% 30.07 in 10.0 mi SSE 16.1 mph 24.2 mph N/A   Scattered Clouds
2:35 AM 68.0 °F 59.0 °F 73% 30.06 in 10.0 mi SSE 20.7 mph 26.5 mph N/A   Mostly Cloudy
2:55 AM 68.0 °F 59.0 °F 73% 30.04 in 10.0 mi SSE 18.4 mph 29.9 mph N/A   Scattered Clouds
3:15 AM 68.0 °F 59.0 °F 73% 30.04 in 10.0 mi SSE 20.7 mph 27.6 mph N/A   Partly Cloudy
3:35 AM 68.0 °F 59.0 °F 73% 30.04 in 9.0 mi SSE 21.9 mph 28.8 mph N/A   Scattered Clouds
3:55 AM 68.0 °F 59.0 °F 73% 30.03 in 10.0 mi SSE 19.6 mph 27.6 mph N/A   Scattered Clouds
4:15 AM 68.0 °F 59.0 °F 73% 30.02 in 9.0 mi SSE 20.7 mph 28.8 mph N/A   Mostly Cloudy
4:35 AM 68.0 °F 59.0 °F 73% 30.02 in 9.0 mi SSE 19.6 mph 26.5 mph N/A   Scattered Clouds
4:55 AM 68.0 °F 59.0 °F 73% 30.02 in 9.0 mi SSE 21.9 mph - N/A   Scattered Clouds
5:15 AM 68.0 °F 59.0 °F 73% 30.02 in 9.0 mi SSE 19.6 mph 26.5 mph N/A   Scattered Clouds
5:35 AM 68.0 °F 59.0 °F 73% 30.03 in 9.0 mi SSE 13.8 mph 23.0 mph N/A   Mostly Cloudy
5:55 AM 68.0 °F 59.0 °F 73% 30.03 in 9.0 mi SSE 15.0 mph 25.3 mph N/A   Mostly Cloudy
6:15 AM 68.0 °F 59.0 °F 73% 30.02 in 8.0 mi SSE 15.0 mph 24.2 mph N/A   Overcast
6:35 AM 68.0 °F 59.0 °F 73% 30.02 in 9.0 mi SSE 15.0 mph 21.9 mph N/A   Mostly Cloudy
6:55 AM 68.0 °F 59.0 °F 73% 30.03 in 10.0 mi SSE 12.7 mph 26.5 mph N/A   Overcast
7:15 AM 68.0 °F 59.0 °F 73% 30.03 in 7.0 mi SSE 13.8 mph 24.2 mph N/A   Overcast
7:35 AM 68.0 °F 59.0 °F 73% 30.04 in 7.0 mi SSE 16.1 mph 24.2 mph N/A   Overcast
7:55 AM 68.0 °F 59.0 °F 73% 30.04 in 7.0 mi SSE 15.0 mph 23.0 mph N/A   Overcast
8:15 AM 68.0 °F 59.0 °F 73% 30.04 in 8.0 mi SSE 16.1 mph 23.0 mph N/A   Mostly Cloudy
8:35 AM 68.0 °F 59.0 °F 73% 30.05 in 7.0 mi SSE 17.3 mph 25.3 mph N/A   Mostly Cloudy
8:55 AM 69.8 °F 60.8 °F 73% 30.05 in 7.0 mi SSE 17.3 mph 26.5 mph N/A   Mostly Cloudy
9:15 AM 69.8 °F 60.8 °F 73% 30.05 in 7.0 mi SSE 20.7 mph 27.6 mph N/A   Scattered Clouds
9:35 AM 69.8 °F 60.8 °F 73% 30.05 in 7.0 mi SSE 19.6 mph - N/A   Scattered Clouds
9:55 AM 69.8 °F 60.8 °F 73% 30.05 in 6.0 mi SSE 17.3 mph 25.3 mph N/A   Haze
10:15 AM 69.8 °F 60.8 °F 73% 30.05 in 6.0 mi SSE 17.3 mph 28.8 mph N/A   Haze
10:35 AM 69.8 °F 60.8 °F 73% 30.04 in 7.0 mi SSE 17.3 mph 26.5 mph N/A   Scattered Clouds
10:55 AM 69.8 °F 62.6 °F 78% 30.05 in 6.0 mi SSE 18.4 mph 25.3 mph N/A   Haze
11:15 AM 69.8 °F 62.6 °F 78% 30.04 in 6.0 mi SSE 19.6 mph 25.3 mph N/A   Haze
11:35 AM 69.8 °F 60.8 °F 73% 30.03 in 6.0 mi SSE 19.6 mph 28.8 mph N/A   Haze
11:55 AM 69.8 °F 62.6 °F 78% 30.02 in 6.0 mi SSE 16.1 mph 28.8 mph N/A   Haze
12:15 PM 69.8 °F 60.8 °F 73% 30.02 in 6.0 mi SSE 15.0 mph 26.5 mph N/A   Haze
12:35 PM 69.8 °F 60.8 °F 73% 30.01 in 6.0 mi SSE 18.4 mph 25.3 mph N/A   Haze
12:55 PM 69.8 °F 60.8 °F 73% 30.00 in 6.0 mi SSE 17.3 mph 24.2 mph N/A   Haze
1:15 PM 69.8 °F 60.8 °F 73% 29.98 in 6.0 mi SSE 21.9 mph - N/A   Haze
1:35 PM 69.8 °F 62.6 °F 78% 29.97 in 6.0 mi SSE 16.1 mph 26.5 mph N/A   Haze
1:55 PM 69.8 °F 62.6 °F 78% 29.96 in 6.0 mi SSE 18.4 mph 25.3 mph N/A   Haze
2:15 PM 69.8 °F 62.6 °F 78% 29.95 in 5.0 mi SSE 19.6 mph - N/A   Haze
2:35 PM 69.8 °F 62.6 °F 78% 29.95 in 6.0 mi SSE 16.1 mph 24.2 mph N/A   Haze
2:55 PM 69.8 °F 62.6 °F 78% 29.94 in 5.0 mi SSE 19.6 mph - N/A   Haze
3:15 PM 69.8 °F 62.6 °F 78% 29.93 in 6.0 mi SSE 17.3 mph 24.2 mph N/A   Haze
3:35 PM 69.8 °F 62.6 °F 78% 29.92 in 6.0 mi SSE 18.4 mph 25.3 mph N/A   Haze
3:55 PM 69.8 °F 62.6 °F 78% 29.92 in 6.0 mi SSE 16.1 mph 21.9 mph N/A   Haze
4:15 PM 69.8 °F 62.6 °F 78% 29.92 in 5.0 mi SSE 16.1 mph 23.0 mph N/A   Haze
4:35 PM 69.8 °F 62.6 °F 78% 29.91 in 5.0 mi SSE 16.1 mph 23.0 mph N/A   Haze
4:55 PM 69.8 °F 62.6 °F 78% 29.90 in 5.0 mi SSE 20.7 mph 26.5 mph N/A   Haze
5:15 PM 69.8 °F 62.6 °F 78% 29.89 in 5.0 mi SSE 16.1 mph 24.2 mph N/A   Haze
5:35 PM 69.8 °F 62.6 °F 78% 29.89 in 5.0 mi SSE 18.4 mph 25.3 mph N/A   Haze
5:55 PM 69.8 °F 62.6 °F 78% 29.89 in 5.0 mi SSE 16.1 mph 25.3 mph N/A   Haze
6:15 PM 69.8 °F 62.6 °F 78% 29.89 in 5.0 mi SSE 17.3 mph 24.2 mph N/A   Haze
6:35 PM 69.8 °F 62.6 °F 78% 29.89 in 5.0 mi SSE 16.1 mph 24.2 mph N/A   Haze
6:55 PM 69.8 °F 62.6 °F 78% 29.89 in 6.0 mi SSE 16.1 mph 27.6 mph N/A   Haze
7:15 PM 69.8 °F 62.6 °F 78% 29.89 in 7.0 mi SSE 15.0 mph 25.3 mph N/A   Unknown
7:35 PM 69.8 °F 62.6 °F 78% 29.89 in 6.0 mi SSE 16.1 mph 25.3 mph N/A   Haze
7:55 PM 69.8 °F 62.6 °F 78% 29.90 in 6.0 mi SSE 18.4 mph 25.3 mph N/A   Haze
8:15 PM 69.8 °F 64.4 °F 83% 29.90 in 6.0 mi SSE 18.4 mph 26.5 mph N/A   Haze
8:35 PM 69.8 °F 64.4 °F 83% 29.91 in 6.0 mi SSE 17.3 mph 25.3 mph N/A   Haze
8:55 PM 69.8 °F 64.4 °F 83% 29.91 in 6.0 mi SSE 16.1 mph 27.6 mph N/A   Haze
9:15 PM 69.8 °F 64.4 °F 83% 29.92 in 6.0 mi SSE 12.7 mph 21.9 mph N/A   Haze
9:35 PM 69.8 °F 64.4 °F 83% 29.91 in 6.0 mi SSE 16.1 mph 25.3 mph N/A   Haze
9:55 PM 69.8 °F 64.4 °F 83% 29.91 in 5.0 mi SSE 16.1 mph 21.9 mph N/A   Haze
10:15 PM 69.8 °F 64.4 °F 83% 29.92 in 6.0 mi SSE 15.0 mph 26.5 mph N/A   Haze
10:35 PM 69.8 °F 64.4 °F 83% 29.92 in 6.0 mi SSE 15.0 mph 21.9 mph N/A   Haze
10:55 PM 69.8 °F 64.4 °F 83% 29.92 in 6.0 mi South 13.8 mph - N/A   Haze
11:15 PM 69.8 °F 64.4 °F 83% 29.92 in 6.0 mi South 13.8 mph 20.7 mph N/A   Haze
11:35 PM 69.8 °F 64.4 °F 83% 29.91 in 6.0 mi South 15.0 mph 21.9 mph N/A   Haze
11:55 PM 69.8 °F 64.4 °F 83% 29.91 in 6.0 mi South 13.8 mph 19.6 mph N/A   Haze